Location: Bremen
(53.0793°N, 8.8017°E)
Time: 21:36:17
(UTC+02:00)

Tiros 1 - Pass Details

Date: 19 April 2024
Orbit: 624 x 657 km, 48.4° (Epoch: 21 May)

Event Time Altitude Azimuth Distance (km) Brightness Sun altitude
Rises 03:24:26 0° 240° (WSW) 2,918 - -20.7°
Reaches altitude 10° 03:26:51 10° 233° (SW) 2,007 - -20.5°
Exits shadow 03:31:06 39° 166° (SSE) 947 7.6 -20.1°
Maximum altitude 03:31:08 39° 165° (SSE) 947 7.6 -20.1°
Drops below altitude 10° 03:35:24 10° 97° (E) 1,999 10.0 -19.8°
Sets 03:37:49 0° 89° (E) 2,905 11.0 -19.6°
